Location: Krasnoyarskiy Pitomnik
(51.1333°N, 71.6167°E)
Time: 11:28:12
(UTC+00:00)

Altair - Pass Details

Date: 14 April 2024
Orbit: 1502 x 1682 km, 47.2° (Epoch: 23 May)

Event Time Altitude Azimuth Distance (km) Brightness Sun altitude
Rises 22:15:11 0° 287° (WNW) 4,770 9.8 -17.5°
Reaches altitude 10° 22:18:50 10° 277° (W) 3,755 9.2 -17.1°
Maximum altitude 22:26:25 29° 223° (SW) 2,539 8.1 -16.2°
Drops below altitude 10° 22:33:51 10° 169° (SSE) 3,657 9.2 -15.3°
Sets 22:37:21 0° 158° (SSE) 4,626 9.9 -14.9°
